Temp
-5 -6 -6 -6 -6 -6 -6 -6 -6 -6 -6 -6 -6 -6 -6 -6 -6 -6 -6 -6 -6 -5 -5 -5 -5 -6 -6 -6 -6 -5 -5 -5 -5 -5 -5 -5 -5 -5 -5 -6 -6 -6 -6 -6 -6 -6 -6 -6 -6 -6 -6 -6 -6 -6 -6 -6 -6 -6 -6 -6 -6 -6 -6
-6 -6 -6 -6 -6 -6 -6 -6 -6 -6 -6 -6 -6 -6 -6 -6 -6 -6 -6 -5 -5 -6 -5 -5 -5 -5 -5 -6 -6 -5 -5 -5 -5 -5 -5 -5 -6 -6 -5 -5 -6 -6 -6 -6 -6 -6 -6 -6 -6 -6 -6 -6 -6 -6 -6 -6 -6 -6 -6 -6 -6 -6 -6
-6 -6 -6 -6 -5 -6 -6 -6 -6 -6 -6 -6 -6 -6 -6 -6 -6 -6 -6 -5 -5 -6 -6 -6 -5 -5 -5 -5 -5 -6 -6 -6 -6 -6 -6 -6 -6 -6 -6 -5 -5 -6 -6 -5 -6 -6 -6 -6 -6 -6 -6 -6 -6 -6 -6 -6 -6 -6 -6 -6 -6 -6 -6
-6 -6 -5 -5 -5 -6 -6 -6 -6 -6 -6 -6 -6 -6 -7 -6 -6 -6 -6 -5 -5 -5 -6 -6 -6 -5 -5 -5 -5 -6 -6 -6 -6 -6 -6 -6 -6 -6 -6 -6 -5 -5 -5 -5 -6 -6 -6 -6 -6 -6 -6 -6 -6 -6 -6 -6 -6 -6 -6 -6 -6 -6 -6
-6 -6 -5 -5 -5 -6 -6 -6 -6 -6 -6 -6 -6 -6 -6 -6 -6 -6 -6 -6 -5 -5 -6 -5 -6 -6 -6 -6 -5 -6 -6 -6 -6 -6 -6 -6 -6 -6 -6 -6 -6 -6 -5 -5 -5 -6 -6 -6 -6 -6 -6 -6 -6 -6 -6 -6 -6 -6 -6 -6 -6 -6 -6
-6 -6 -6 -5 -6 -7 -6 -6 -6 -6 -6 -6 -6 -6 -6 -6 -6 -6 -6 -6 -6 -6 -6 -6 -6 -6 -6 -6 -6 -5 -6 -6 -6 -6 -6 -6 -6 -6 -6 -6 -6 -6 -6 -6 -6 -6 -6 -6 -6 -6 -6 -6 -6 -6 -6 -6 -6 -6 -6 -6 -6 -6 -6
-6 -6 -6 -6 -6 -6 -6 -6 -6 -6 -6 -6 -6 -6 -6 -6 -6 -6 -6 -6 -6 -6 -6 -6 -6 -6 -6 -6 -6 -5 -5 -6 -6 -6 -6 -6 -6 -6 -6 -6 -6 -6 -6 -6 -6 -6 -6 -6 -6 -6 -6 -6 -6 -6 -6 -6 -6 -6 -6 -6 -6 -6 -6
-6 -6 -6 -6 -6 -6 -6 -6 -6 -6 -6 -6 -6 -6 -6 -6 -6 -6 -6 -6 -6 -6 -6 -6 -6 -6 -6 -6 -6 -5 -5 -5 -5 -6 -6 -6 -6 -6 -6 -6 -6 -6 -6 -6 -6 -6 -6 -6 -6 -6 -6 -6 -5 -5 -5 -6 -6 -6 -6 -6 -6 -6 -6
-7 -7 -6 -6 -6 -6 -7 -7 -7 -6 -6 -6 -6 -6 -6 -6 -6 -6 -6 -6 -6 -6 -6 -6 -6 -6 -6 -6 -6 -6 -5 -5 -5 -5 -5 -6 -6 -6 -6 -6 -6 -6 -6 -6 -6 -6 -6 -6 -6 -6 -6 -5 -5 -5 -5 -5 -5 -6 -6 -6 -6 -6 -6
-8 -7 -7 -7 -7 -7 -7 -7 -7 -7 -6 -7 -7 -7 -6 -6 -6 -6 -6 -6 -6 -6 -6 -6 -6 -6 -6 -6 -6 -6 -6 -5 -5 -5 -5 -5 -5 -5 -6 -6 -6 -6 -6 -6 -6 -6 -6 -6 -6 -6 -6 -6 -5 -5 -5 -5 -5 -5 -5 -6 -6 -6 -6
-8 -8 -8 -8 -7 -7 -7 -7 -7 -7 -7 -7 -7 -7 -6 -7 -7 -7 -7 -7 -6 -6 -6 -6 -6 -6 -6 -6 -6 -6 -6 -6 -6 -5 -5 -5 -5 -5 -5 -6 -6 -6 -6 -6 -5 -6 -6 -6 -6 -6 -6 -6 -6 -6 -5 -5 -5 -5 -5 -5 -5 -6 -6
-8 -8 -8 -8 -8 -8 -8 -7 -7 -8 -7 -7 -6 -6 -6 -7 -7 -7 -7 -7 -7 -7 -7 -7 -7 -7 -7 -7 -6 -6 -6 -6 -6 -6 -6 -6 -6 -5 -5 -5 -5 -6 -6 -6 -6 -6 -6 -6 -6 -6 -6 -6 -6 -6 -6 -6 -5 -5 -5 -5 -5 -5 -5
-9 -8 -8 -8 -8 -8 -8 -8 -8 -8 -8 -7 -7 -7 -6 -6 -7 -7 -7 -7 -7 -7 -7 -7 -7 -7 -7 -7 -7 -7 -7 -7 -6 -6 -6 -6 -6 -6 -6 -6 -6 -5 -6 -6 -6 -6 -6 -6 -6 -6 -6 -6 -6 -6 -6 -6 -6 -6 -6 -5 -5 -5 -5
-9 -9 -9 -8 -8 -8 -8 -8 -8 -8 -8 -8 -7 -7 -6 -6 -7 -7 -7 -7 -7 -7 -7 -7 -7 -7 -7 -7 -7 -7 -7 -7 -6 -6 -6 -6 -6 -6 -6 -6 -6 -6 -6 -6 -6 -6 -6 -6 -6 -6 -6 -6 -6 -6 -6 -6 -6 -6 -6 -6 -5 -5 -5
-9 -9 -9 -9 -8 -8 -8 -8 -8 -8 -8 -8 -8 -7 -7 -7 -7 -7 -7 -7 -7 -7 -7 -7 -7 -7 -7 -7 -7 -7 -7 -7 -6 -6 -6 -6 -6 -6 -6 -6 -6 -6 -6 -6 -6 -6 -6 -6 -6 -6 -6 -6 -6 -6 -6 -6 -6 -6 -6 -6 -6 -6 -5
-9 -9 -9 -9 -9 -9 -9 -9 -8 -8 -8 -8 -8 -8 -7 -7 -7 -7 -7 -7 -7 -7 -7 -7 -7 -7 -7 -7 -7 -7 -7 -7 -6 -6 -6 -6 -7 -6 -6 -6 -6 -6 -6 -6 -6 -6 -6 -6 -6 -6 -6 -6 -6 -6 -6 -6 -6 -6 -6 -6 -6 -6 -6
-9 -9 -9 -9 -9 -9 -9 -9 -9 -8 -8 -8 -8 -8 -8 -8 -8 -7 -7 -7 -7 -7 -7 -7 -7 -7 -7 -7 -7 -7 -7 -6 -6 -6 -6 -6 -6 -6 -6 -6 -6 -6 -6 -6 -6 -6 -6 -5 -5 -5 -6 -6 -6 -6 -6 -6 -6 -6 -6 -6 -6 -6 -6
-9 -10 -10 -9 -9 -9 -9 -9 -9 -8 -8 -8 -8 -8 -8 -8 -8 -8 -8 -7 -7 -7 -7 -7 -7 -7 -7 -7 -7 -7 -7 -6 -6 -6 -6 -6 -6 -6 -7 -6 -6 -6 -6 -6 -6 -6 -6 -6 -6 -5 -5 -6 -6 -6 -6 -6 -6 -6 -6 -6 -6 -6 -6
-9 -9 -10 -10 -9 -9 -9 -9 -9 -9 -8 -8 -8 -8 -8 -8 -8 -8 -8 -7 -7 -8 -7 -7 -7 -7 -7 -7 -7 -7 -7 -7 -6 -6 -6 -6 -6 -6 -7 -7 -7 -7 -7 -6 -6 -6 -6 -6 -6 -6 -5 -5 -6 -6 -6 -6 -6 -6 -6 -6 -6 -6 -6
-9 -9 -9 -9 -9 -9 -9 -9 -9 -9 -9 -8 -8 -8 -8 -8 -8 -8 -8 -7 -8 -8 -8 -7 -7 -7 -7 -7 -7 -7 -7 -7 -6 -6 -7 -7 -7 -7 -7 -7 -6 -6 -6 -6 -6 -6 -6 -6 -6 -6 -6 -6 -6 -6 -6 -6 -6 -6 -6 -6 -6 -6 -6
-9 -9 -9 -9 -9 -10 -10 -9 -9 -9 -9 -9 -8 -8 -8 -8 -8 -8 -8 -8 -8 -8 -8 -8 -8 -7 -7 -8 -8 -7 -7 -7 -7 -6 -6 -7 -7 -6 -6 -6 -7 -6 -6 -6 -6 -6 -6 -6 -6 -6 -6 -6 -6 -6 -6 -6 -6 -6 -7 -6 -6 -6 -7
-10 -9 -9 -10 -10 -10 -10 -10 -10 -10 -9 -9 -9 -8 -8 -8 -8 -9 -8 -8 -8 -8 -8 -8 -8 -8 -7 -8 -8 -8 -7 -7 -7 -7 -7 -6 -6 -6 -6 -6 -7 -7 -7 -6 -6 -6 -6 -6 -6 -6 -6 -6 -6 -6 -7 -7 -7 -7 -7 -7 -6 -7 -7
-10 -10 -10 -10 -10 -10 -10 -10 -10 -10 -10 -9 -9 -9 -9 -8 -8 -9 -9 -9 -8 -8 -8 -8 -8 -8 -8 -8 -8 -8 -8 -8 -7 -7 -7 -7 -7 -6 -6 -6 -6 -7 -7 -6 -6 -6 -6 -6 -6 -6 -6 -6 -6 -6 -7 -7 -7 -7 -7 -7 -7 -7 -7
-10 -10 -10 -10 -10 -10 -10 -10 -10 -10 -10 -10 -9 -9 -9 -9 -9 -9 -9 -9 -9 -9 -9 -8 -8 -8 -8 -8 -8 -8 -8 -8 -7 -7 -7 -7 -7 -7 -6 -6 -7 -6 -6 -6 -6 -6 -6 -6 -6 -6 -6 -6 -6 -6 -7 -7 -7 -7 -7 -7 -7 -7 -7
-10 -10 -10 -10 -10 -10 -10 -10 -10 -10 -10 -10 -9 -9 -9 -9 -9 -9 -9 -9 -9 -9 -9 -9 -9 -8 -8 -8 -8 -8 -8 -8 -8 -7 -7 -7 -7 -7 -7 -7 -7 -7 -7 -6 -6 -6 -6 -6 -6 -6 -6 -6 -6 -6 -7 -7 -7 -7 -7 -7 -7 -7 -7
-10 -10 -10 -10 -10 -10 -10 -10 -10 -10 -10 -10 -9 -9 -9 -9 -9 -9 -9 -9 -9 -9 -9 -9 -9 -9 -9 -8 -8 -8 -8 -8 -8 -8 -7 -7 -7 -7 -7 -7 -7 -7 -7 -7 -6 -7 -6 -6 -6 -6 -6 -6 -6 -6 -7 -7 -7 -7 -7 -7 -7 -7 -7
-10 -10 -10 -10 -10 -10 -10 -10 -10 -10 -10 -10 -10 -9 -9 -9 -9 -9 -9 -9 -9 -9 -9 -10 -9 -9 -9 -9 -9 -9 -8 -8 -8 -8 -8 -8 -7 -7 -7 -7 -7 -7 -7 -7 -7 -7 -7 -7 -7 -7 -6 -6 -6 -7 -7 -7 -7 -7 -7 -7 -7 -7 -7
-10 -10 -10 -10 -10 -10 -10 -10 -10 -10 -10 -10 -10 -10 -10 -10 -9 -9 -9 -9 -9 -9 -10 -10 -10 -10 -10 -9 -9 -9 -9 -9 -9 -8 -8 -8 -8 -8 -8 -7 -7 -7 -7 -7 -7 -7 -7 -7 -7 -7 -7 -7 -7 -7 -7 -7 -7 -7 -7 -7 -7 -7 -7
-11 -11 -11 -10 -10 -10 -10 -10 -10 -11 -11 -11 -11 -11 -10 -10 -10 -10 -10 -10 -10 -10 -10 -10 -10 -10 -10 -10 -10 -10 -9 -9 -9 -9 -9 -9 -9 -8 -8 -8 -8 -7 -7 -7 -7 -7 -7 -7 -7 -7 -7 -7 -7 -7 -7 -7 -7 -7 -7 -8 -8 -8 -8
-11 -11 -11 -10 -11 -10 -10 -10 -10 -11 -11 -11 -11 -11 -11 -11 -10 -10 -10 -10 -10 -10 -10 -10 -10 -10 -10 -10 -10 -10 -10 -10 -9 -9 -9 -9 -9 -9 -9 -8 -8 -8 -8 -7 -7 -7 -7 -7 -7 -8 -8 -7 -7 -8 -8 -8 -7 -8 -8 -8 -8 -8 -8
-11 -11 -11 -11 -11 -11 -11 -10 -10 -11 -11 -11 -11 -11 -11 -11 -11 -10 -10 -10 -10 -10 -10 -10 -10 -10 -10 -10 -10 -10 -10 -10 -10 -10 -9 -9 -9 -9 -9 -9 -8 -8 -8 -8 -8 -8 -8 -8 -8 -8 -8 -8 -8 -8 -8 -8 -8 -8 -7 -7 -8 -8 -8
-12 -11 -11 -11 -11 -11 -11 -11 -11 -11 -11 -12 -12 -11 -11 -11 -11 -11 -11 -10 -10 -10 -10 -10 -10 -10 -10 -10 -10 -10 -10 -10 -10 -10 -10 -10 -10 -9 -9 -9 -9 -9 -9 -9 -8 -8 -8 -8 -8 -8 -8 -8 -8 -8 -8 -8 -8 -8 -8 -8 -8 -8 -8
-12 -12 -12 -12 -12 -12 -11 -11 -11 -11 -11 -12 -12 -11 -11 -11 -11 -11 -11 -11 -11 -11 -11 -11 -11 -11 -11 -11 -10 -10 -10 -10 -10 -10 -10 -10 -10 -10 -10 -9 -9 -9 -9 -9 -9 -9 -9 -9 -9 -9 -9 -8 -8 -9 -8 -8 -9 -9 -8 -8 -8 -8 -8
-12 -12 -12 -12 -12 -12 -12 -12 -11 -11 -12 -12 -12 -12 -12 -12 -12 -11 -11 -11 -11 -11 -11 -11 -11 -11 -11 -11 -11 -11 -11 -10 -10 -10 -10 -10 -10 -10 -10 -10 -9 -9 -9 -9 -9 -9 -9 -9 -9 -9 -9 -8 -9 -9 -9 -9 -9 -9 -9 -9 -8 -8 -8
-13 -13 -13 -13 -12 -12 -12 -12 -12 -12 -12 -12 -12 -12 -12 -12 -12 -12 -12 -12 -12 -12 -12 -11 -11 -11 -11 -11 -11 -11 -11 -11 -11 -11 -11 -10 -10 -10 -10 -10 -10 -10 -10 -10 -10 -9 -9 -9 -9 -9 -9 -9 -9 -10 -10 -10 -10 -9 -9 -9 -9 -9 -9
-13 -13 -13 -13 -13 -13 -13 -12 -12 -12 -13 -13 -13 -12 -12 -12 -12 -12 -12 -12 -12 -12 -12 -12 -12 -12 -11 -11 -11 -11 -11 -11 -11 -11 -11 -11 -11 -11 -11 -10 -10 -10 -10 -10 -10 -10 -10 -10 -10 -10 -9 -9 -9 -10 -10 -10 -10 -10 -10 -10 -10 -9 -9
-14 -14 -14 -13 -13 -13 -13 -13 -13 -13 -13 -13 -13 -13 -13 -13 -12 -12 -12 -12 -12 -12 -12 -12 -12 -12 -12 -12 -12 -12 -12 -11 -11 -11 -11 -11 -11 -11 -11 -11 -11 -11 -10 -10 -10 -10 -10 -10 -10 -10 -10 -10 -10 -10 -10 -10 -10 -10 -10 -10 -10 -10 -10
-14 -14 -14 -14 -14 -14 -14 -13 -13 -13 -13 -13 -13 -13 -13 -13 -13 -13 -13 -12 -12 -12 -12 -12 -12 -12 -12 -12 -12 -12 -12 -12 -12 -11 -11 -11 -11 -11 -11 -11 -11 -11 -11 -11 -10 -10 -10 -10 -10 -10 -10 -10 -10 -10 -10 -10 -10 -10 -10 -11 -11 -10 -10
Height
5902 5903 5906 5909 5911 5913 5914 5915 5917 5918 5920 5921 5922 5924 5925 5926 5928 5929 5931 5932 5933 5935 5937 5938 5939 5940 5941 5942 5944 5945 5947 5948 5949 5949 5950 5951 5951 5952 5953 5954 5955 5955 5956 5956 5957 5958 5958 5958 5959 5959 5960 5961 5961 5962 5963 5963 5964 5964 5965 5965 5966 5966 5967
5902 5904 5906 5908 5909 5910 5912 5914 5915 5918 5919 5920 5921 5923 5924 5925 5926 5928 5929 5930 5932 5934 5935 5936 5938 5939 5941 5942 5943 5944 5945 5947 5948 5949 5950 5951 5951 5952 5953 5954 5954 5955 5956 5956 5957 5957 5958 5958 5959 5959 5959 5960 5961 5962 5962 5963 5963 5964 5964 5965 5965 5966 5967
5901 5902 5904 5905 5906 5908 5910 5912 5914 5916 5918 5919 5921 5922 5923 5924 5925 5926 5927 5928 5930 5932 5934 5935 5937 5938 5940 5941 5942 5943 5944 5945 5947 5948 5949 5951 5951 5952 5953 5953 5954 5955 5956 5956 5957 5957 5957 5958 5958 5959 5959 5960 5960 5961 5962 5962 5963 5963 5964 5965 5965 5966 5966
5898 5900 5901 5902 5903 5905 5908 5910 5912 5915 5916 5918 5920 5920 5922 5923 5924 5925 5926 5927 5929 5931 5933 5934 5935 5937 5938 5940 5941 5942 5943 5944 5945 5947 5948 5950 5951 5951 5952 5953 5954 5954 5955 5956 5956 5957 5957 5957 5958 5958 5959 5959 5960 5961 5961 5962 5962 5963 5964 5964 5965 5965 5966
5895 5897 5899 5900 5901 5903 5906 5908 5911 5913 5915 5917 5919 5920 5921 5923 5923 5924 5925 5927 5928 5930 5931 5933 5934 5936 5937 5938 5939 5941 5942 5943 5944 5946 5947 5948 5949 5950 5951 5953 5954 5954 5954 5955 5956 5956 5957 5957 5957 5958 5958 5959 5960 5960 5961 5961 5962 5962 5963 5964 5964 5965 5966
5892 5895 5897 5898 5900 5902 5904 5907 5908 5911 5913 5916 5918 5919 5920 5921 5922 5923 5924 5926 5927 5928 5930 5932 5933 5935 5936 5936 5937 5939 5940 5942 5943 5944 5945 5947 5948 5949 5950 5952 5953 5953 5954 5954 5955 5955 5956 5956 5957 5958 5958 5958 5959 5960 5961 5961 5962 5962 5963 5963 5964 5965 5965
5892 5894 5895 5897 5898 5901 5903 5905 5907 5909 5912 5914 5916 5918 5918 5919 5921 5922 5923 5925 5926 5927 5929 5930 5932 5933 5934 5935 5936 5937 5939 5940 5942 5943 5944 5945 5946 5948 5949 5950 5951 5952 5953 5954 5954 5955 5955 5955 5956 5957 5958 5958 5959 5960 5960 5961 5961 5962 5962 5963 5963 5964 5965
5891 5892 5894 5896 5897 5899 5901 5904 5906 5908 5910 5912 5914 5916 5917 5917 5919 5921 5922 5923 5925 5926 5927 5928 5930 5931 5932 5933 5935 5936 5937 5939 5940 5941 5943 5944 5945 5946 5948 5949 5950 5951 5952 5953 5953 5954 5954 5954 5955 5956 5957 5957 5958 5959 5960 5960 5961 5961 5962 5963 5963 5964 5964
5890 5891 5893 5895 5897 5899 5900 5902 5904 5907 5909 5911 5913 5914 5914 5915 5917 5920 5921 5922 5923 5925 5926 5926 5927 5929 5931 5932 5933 5935 5936 5937 5939 5940 5941 5942 5944 5945 5946 5947 5948 5949 5950 5951 5951 5952 5953 5953 5954 5955 5955 5956 5957 5958 5959 5959 5960 5961 5962 5963 5963 5963 5964
5889 5891 5892 5894 5896 5897 5899 5901 5903 5904 5906 5908 5910 5911 5912 5913 5915 5917 5918 5919 5921 5922 5924 5925 5926 5928 5929 5930 5931 5933 5934 5936 5937 5939 5940 5941 5942 5943 5944 5945 5946 5947 5948 5949 5950 5951 5952 5952 5953 5953 5954 5955 5956 5957 5957 5958 5959 5960 5961 5962 5962 5963 5963
5888 5890 5891 5893 5895 5896 5898 5900 5902 5902 5903 5904 5906 5907 5908 5910 5912 5914 5915 5916 5918 5920 5922 5924 5925 5927 5928 5929 5930 5931 5933 5934 5936 5937 5938 5939 5940 5941 5942 5943 5944 5945 5946 5947 5948 5950 5950 5951 5952 5952 5953 5953 5954 5955 5956 5957 5958 5959 5959 5960 5961 5962 5962
5887 5889 5891 5892 5894 5896 5898 5899 5900 5900 5901 5902 5903 5903 5905 5906 5908 5910 5912 5914 5916 5918 5920 5921 5924 5925 5926 5927 5928 5930 5931 5932 5933 5935 5936 5937 5938 5939 5941 5941 5942 5944 5944 5945 5946 5948 5949 5949 5950 5951 5952 5952 5953 5954 5955 5956 5957 5957 5958 5959 5959 5960 5961
5886 5888 5890 5891 5893 5895 5897 5898 5899 5899 5899 5900 5901 5901 5902 5903 5905 5908 5910 5912 5913 5915 5917 5919 5921 5923 5924 5925 5926 5928 5929 5929 5931 5932 5934 5935 5936 5937 5939 5939 5940 5941 5942 5943 5944 5945 5946 5947 5948 5949 5950 5951 5952 5953 5953 5954 5955 5956 5957 5957 5958 5958 5959
5886 5887 5889 5890 5892 5893 5895 5896 5897 5898 5898 5899 5900 5900 5901 5901 5903 5906 5908 5910 5912 5914 5915 5917 5919 5921 5922 5923 5924 5926 5926 5927 5928 5929 5931 5932 5933 5934 5935 5936 5937 5938 5939 5941 5942 5943 5944 5945 5946 5947 5948 5949 5950 5951 5952 5953 5954 5954 5955 5956 5956 5956 5957
5884 5886 5887 5889 5891 5892 5894 5895 5896 5897 5898 5898 5899 5899 5900 5901 5902 5904 5906 5908 5910 5911 5913 5914 5916 5918 5920 5921 5922 5923 5924 5924 5926 5927 5928 5929 5930 5931 5932 5933 5935 5936 5937 5938 5939 5940 5941 5942 5944 5945 5946 5947 5948 5949 5950 5951 5952 5953 5953 5954 5954 5954 5955
5881 5883 5886 5888 5889 5891 5893 5893 5894 5895 5896 5897 5897 5898 5899 5901 5902 5903 5905 5906 5907 5908 5909 5910 5912 5914 5916 5918 5919 5920 5921 5922 5923 5924 5925 5926 5928 5929 5930 5931 5932 5933 5934 5935 5937 5938 5939 5940 5941 5942 5943 5944 5946 5947 5948 5949 5950 5950 5950 5951 5952 5953 5953
5880 5882 5884 5886 5887 5889 5891 5891 5892 5893 5894 5895 5896 5897 5898 5899 5901 5902 5904 5904 5905 5906 5906 5907 5908 5911 5913 5915 5916 5917 5918 5920 5921 5922 5923 5924 5925 5926 5928 5929 5930 5931 5932 5933 5934 5935 5936 5937 5938 5939 5941 5942 5943 5945 5946 5946 5947 5947 5947 5948 5950 5951 5951
5879 5881 5882 5883 5885 5887 5889 5890 5890 5891 5892 5893 5894 5895 5896 5898 5899 5900 5901 5902 5903 5903 5904 5905 5906 5908 5910 5911 5913 5914 5915 5917 5918 5919 5920 5921 5923 5924 5925 5926 5928 5929 5930 5931 5931 5932 5933 5934 5935 5936 5938 5939 5940 5941 5942 5943 5943 5944 5945 5945 5947 5948 5948
5878 5879 5881 5882 5883 5885 5886 5888 5889 5889 5890 5891 5891 5892 5893 5896 5897 5898 5899 5900 5901 5901 5902 5903 5904 5905 5907 5909 5910 5911 5912 5913 5914 5915 5917 5918 5919 5920 5922 5923 5925 5927 5928 5929 5929 5930 5931 5932 5932 5933 5934 5936 5937 5937 5938 5939 5940 5940 5941 5942 5943 5944 5945
5876 5877 5879 5880 5881 5883 5884 5885 5886 5887 5888 5889 5890 5890 5892 5894 5895 5896 5897 5898 5898 5899 5901 5902 5903 5904 5905 5906 5907 5908 5908 5909 5910 5911 5912 5914 5916 5917 5919 5920 5922 5923 5925 5926 5927 5928 5929 5929 5929 5930 5931 5932 5932 5932 5933 5934 5935 5936 5937 5938 5939 5941 5941
5874 5875 5876 5878 5879 5881 5882 5883 5884 5885 5886 5887 5888 5889 5891 5892 5893 5894 5894 5895 5896 5897 5898 5900 5901 5901 5902 5902 5904 5904 5905 5906 5907 5908 5910 5911 5913 5914 5916 5917 5918 5920 5921 5922 5923 5924 5925 5925 5925 5926 5927 5928 5928 5928 5929 5931 5932 5932 5933 5934 5935 5936 5937
5870 5872 5873 5875 5876 5878 5879 5880 5881 5882 5883 5884 5886 5887 5889 5890 5891 5892 5892 5893 5894 5895 5896 5897 5898 5898 5899 5900 5900 5901 5902 5903 5905 5906 5907 5907 5909 5910 5912 5913 5914 5916 5916 5917 5918 5920 5920 5921 5922 5922 5924 5925 5924 5924 5925 5926 5927 5928 5928 5929 5930 5932 5933
5867 5868 5870 5871 5873 5874 5875 5877 5878 5879 5880 5882 5884 5885 5886 5887 5889 5890 5890 5891 5891 5893 5894 5895 5895 5896 5896 5897 5898 5899 5900 5901 5903 5904 5905 5905 5906 5907 5908 5909 5910 5911 5912 5913 5914 5915 5916 5917 5918 5919 5921 5921 5921 5920 5919 5920 5921 5922 5922 5924 5925 5927 5928
5863 5864 5866 5868 5869 5870 5871 5873 5874 5876 5877 5879 5880 5882 5883 5885 5886 5886 5888 5888 5889 5890 5891 5892 5893 5893 5893 5894 5895 5897 5898 5900 5901 5902 5902 5902 5903 5904 5904 5905 5906 5907 5908 5909 5910 5910 5910 5912 5914 5915 5915 5916 5916 5915 5915 5915 5916 5916 5917 5919 5920 5921 5923
5858 5859 5861 5863 5864 5866 5868 5869 5870 5872 5874 5875 5876 5878 5880 5881 5882 5883 5884 5885 5886 5887 5888 5889 5890 5890 5891 5892 5893 5894 5896 5897 5898 5899 5899 5900 5900 5901 5901 5901 5902 5904 5905 5905 5905 5906 5906 5907 5909 5910 5910 5910 5909 5909 5910 5911 5911 5912 5915 5916 5916 5917 5919
5853 5855 5856 5858 5860 5861 5863 5865 5866 5868 5870 5871 5873 5874 5876 5877 5879 5880 5881 5882 5882 5884 5885 5886 5887 5888 5889 5889 5890 5891 5892 5893 5895 5896 5897 5897 5898 5898 5898 5899 5900 5900 5901 5902 5902 5903 5903 5904 5905 5906 5906 5906 5905 5904 5905 5906 5906 5908 5910 5912 5913 5914 5915
5848 5850 5852 5853 5855 5856 5858 5860 5862 5863 5865 5867 5868 5870 5871 5873 5874 5876 5877 5878 5879 5880 5881 5882 5883 5885 5886 5887 5888 5888 5889 5890 5891 5892 5893 5894 5894 5894 5895 5896 5897 5898 5899 5899 5900 5900 5901 5901 5902 5902 5902 5902 5902 5901 5900 5901 5902 5903 5905 5907 5909 5910 5911
5843 5845 5847 5848 5850 5851 5853 5855 5857 5859 5861 5863 5864 5865 5867 5868 5870 5871 5872 5874 5875 5876 5877 5878 5879 5881 5882 5883 5884 5885 5886 5886 5887 5888 5889 5890 5891 5891 5892 5892 5893 5894 5895 5896 5897 5898 5898 5898 5898 5898 5898 5898 5898 5897 5897 5897 5898 5899 5901 5903 5904 5905 5906
5839 5840 5842 5844 5845 5847 5849 5850 5852 5855 5856 5858 5860 5861 5862 5864 5865 5867 5868 5869 5871 5872 5873 5874 5875 5877 5878 5879 5880 5881 5882 5883 5884 5884 5885 5886 5887 5888 5889 5889 5889 5890 5891 5892 5893 5894 5894 5895 5895 5895 5896 5896 5895 5894 5895 5895 5895 5896 5897 5898 5899 5900 5901
5833 5835 5837 5839 5840 5842 5844 5845 5846 5849 5852 5853 5855 5856 5857 5859 5860 5862 5863 5864 5866 5867 5869 5870 5871 5872 5874 5875 5876 5877 5878 5879 5880 5881 5882 5882 5883 5884 5885 5886 5886 5887 5887 5888 5889 5890 5891 5891 5891 5891 5893 5893 5893 5893 5893 5894 5893 5894 5894 5894 5894 5894 5895
5829 5831 5833 5834 5836 5837 5838 5840 5841 5843 5846 5848 5850 5852 5853 5854 5856 5857 5859 5860 5861 5863 5864 5866 5867 5868 5870 5871 5872 5873 5874 5875 5876 5877 5878 5879 5879 5880 5881 5882 5883 5884 5884 5884 5885 5886 5887 5887 5888 5888 5888 5889 5890 5891 5892 5891 5890 5890 5892 5892 5891 5891 5891
5825 5827 5828 5830 5831 5832 5834 5835 5837 5838 5840 5843 5845 5847 5848 5850 5851 5853 5854 5856 5857 5858 5859 5861 5862 5864 5865 5866 5867 5869 5870 5871 5872 5873 5874 5875 5876 5876 5877 5878 5880 5880 5881 5881 5881 5882 5883 5883 5884 5884 5884 5885 5886 5887 5888 5888 5887 5888 5890 5890 5890 5889 5890
5821 5822 5823 5825 5826 5827 5829 5830 5832 5834 5836 5838 5840 5842 5843 5845 5846 5848 5849 5851 5852 5853 5854 5856 5857 5858 5860 5861 5862 5864 5865 5866 5867 5868 5869 5870 5871 5872 5873 5874 5875 5876 5877 5877 5878 5879 5879 5880 5880 5881 5881 5882 5882 5882 5883 5884 5884 5885 5887 5888 5887 5888 5888
5816 5817 5819 5820 5822 5823 5824 5826 5828 5829 5831 5833 5835 5837 5838 5840 5841 5843 5844 5845 5847 5848 5849 5850 5852 5853 5854 5856 5857 5858 5860 5861 5862 5863 5864 5866 5867 5868 5869 5869 5871 5872 5873 5873 5874 5875 5876 5877 5877 5879 5880 5879 5878 5878 5879 5880 5881 5882 5883 5884 5885 5885 5886
5811 5812 5813 5815 5816 5817 5819 5821 5823 5824 5826 5827 5829 5831 5832 5834 5836 5837 5838 5840 5841 5842 5844 5845 5846 5848 5849 5850 5852 5853 5854 5856 5857 5858 5859 5860 5862 5863 5864 5865 5866 5867 5868 5869 5870 5871 5872 5873 5874 5875 5877 5876 5875 5874 5875 5876 5877 5878 5879 5881 5882 5882 5882
5805 5806 5808 5809 5810 5811 5813 5815 5816 5818 5820 5822 5823 5825 5826 5828 5830 5831 5833 5834 5835 5837 5838 5840 5841 5842 5843 5845 5846 5848 5849 5850 5852 5853 5854 5855 5856 5857 5859 5860 5861 5862 5863 5864 5865 5866 5867 5868 5869 5871 5872 5872 5872 5872 5872 5872 5872 5873 5875 5876 5877 5878 5879
5799 5801 5802 5803 5804 5806 5807 5809 5811 5813 5814 5815 5816 5818 5819 5821 5823 5825 5827 5828 5830 5831 5833 5834 5835 5837 5838 5839 5840 5842 5843 5845 5846 5847 5849 5850 5851 5852 5853 5854 5856 5857 5858 5859 5860 5861 5862 5863 5864 5866 5867 5867 5868 5868 5868 5868 5869 5869 5870 5871 5872 5873 5874
5794 5795 5796 5797 5798 5799 5801 5803 5805 5806 5807 5808 5809 5811 5813 5815 5817 5819 5821 5823 5824 5825 5827 5828 5830 5831 5833 5834 5835 5836 5837 5839 5840 5841 5843 5844 5845 5847 5848 5849 5850 5851 5852 5853 5855 5856 5857 5858 5859 5860 5861 5862 5863 5863 5864 5864 5864 5865 5865 5866 5867 5868 5869
Wind_Speed
10 16 26 27 28 29 29 27 25 23 22 22 22 22 23 24 25 24 23 22 21 20 20 20 20 19 19 19 19 18 17 16 15 14 14 13 12 11 10 10 9 9 8 7 6 5 5 5 5 4 4 4 4 3 3 3 3 3 3 4 4 4 4
12 14 18 22 28 31 30 28 26 23 23 23 22 22 22 24 25 25 24 23 22 21 21 21 21 20 19 19 19 18 18 17 16 16 15 14 13 13 12 11 11 10 9 8 7 6 6 5 5 5 5 5 5 5 4 3 3 3 3 3 4 4 5
14 15 15 17 25 32 31 29 26 24 23 23 22 21 21 23 25 25 25 24 23 22 21 21 21 21 20 19 19 18 18 17 17 16 15 14 13 14 13 12 12 11 10 9 8 8 7 6 6 6 6 6 6 6 5 5 4 4 3 4 4 4 5
15 16 17 17 23 31 32 29 26 24 23 22 22 20 20 22 24 25 25 24 23 22 22 22 22 21 21 20 19 18 18 18 18 17 16 15 15 16 14 13 13 12 11 10 9 9 8 7 7 7 7 8 8 8 7 7 6 6 5 5 5 5 5
15 15 17 16 20 29 31 28 26 25 23 23 23 21 22 25 25 24 24 24 23 23 23 22 22 21 21 21 20 20 19 18 18 18 17 17 17 17 16 14 13 13 12 11 10 9 9 8 8 8 9 9 9 9 9 9 8 8 7 6 6 5 5
15 15 15 14 16 23 28 28 27 26 24 24 23 22 24 26 25 24 24 24 23 23 23 22 22 22 22 22 22 21 20 19 19 19 19 18 18 18 17 16 15 14 12 11 11 11 10 9 9 9 9 9 9 10 10 10 10 9 9 8 7 6 6
15 16 16 15 16 19 24 27 28 26 25 25 23 24 25 26 24 24 24 23 23 23 22 22 23 23 23 24 24 23 21 21 20 20 19 19 19 18 18 17 16 15 13 12 13 12 11 11 10 10 10 10 10 10 10 11 10 10 9 9 9 8 8
13 14 15 14 15 17 19 23 24 23 23 24 26 27 28 27 25 23 23 23 23 22 22 22 23 23 23 24 24 24 23 22 22 21 20 20 19 19 19 18 18 17 15 15 15 14 13 12 11 11 11 10 10 10 10 10 10 10 9 10 10 9 9
11 10 12 12 13 15 16 17 18 20 20 21 23 27 30 30 27 25 25 25 23 23 22 23 23 23 22 22 23 23 23 23 22 22 21 20 20 19 19 19 18 18 17 17 16 15 14 14 13 12 12 11 11 11 11 10 11 11 11 11 11 10 10
10 10 10 11 12 13 14 14 15 17 19 18 19 24 30 32 30 28 28 27 25 25 24 23 23 22 21 22 22 23 23 23 23 22 22 22 21 20 19 19 19 18 18 18 17 16 16 15 14 14 14 13 12 11 11 11 11 11 12 12 11 11 11
11 11 11 11 11 11 12 12 12 14 16 17 18 21 26 33 34 32 30 30 28 26 25 24 22 21 20 21 22 23 22 22 22 22 22 22 22 21 20 20 19 19 18 19 18 17 17 16 16 15 15 14 13 13 12 12 12 13 13 13 13 13 13
12 12 11 10 10 11 11 11 11 12 13 15 18 18 21 30 36 34 31 31 29 28 27 25 23 21 20 20 20 21 21 21 21 21 21 22 22 22 21 21 20 19 19 19 19 18 18 18 17 17 16 15 15 14 14 13 13 14 14 14 14 14 14
14 13 12 12 11 11 11 11 11 12 12 13 15 16 16 22 32 34 31 31 30 29 28 27 25 23 22 21 20 19 20 20 20 20 20 21 22 22 21 22 22 21 20 20 19 19 19 19 19 19 18 17 16 16 16 15 15 15 15 16 16 15 15
18 16 15 14 13 12 10 11 12 12 12 12 13 13 12 14 24 29 30 30 30 30 29 29 28 26 24 23 21 20 19 19 19 19 19 21 21 21 22 22 23 23 22 21 20 21 21 21 20 21 20 20 19 18 17 17 16 16 17 18 17 17 17
20 20 19 16 14 12 10 11 13 12 12 11 11 12 9 10 16 21 24 26 27 28 30 31 30 28 26 25 23 21 20 20 19 18 19 20 20 21 22 22 23 23 24 23 23 22 22 22 22 22 22 22 21 20 19 18 17 17 19 20 19 18 18
19 20 20 19 18 15 13 13 14 13 13 12 11 11 11 11 13 16 19 20 20 21 25 32 35 32 28 27 25 23 23 22 21 21 21 20 20 20 21 22 23 23 24 24 24 24 24 24 23 23 23 23 23 23 22 21 20 20 22 21 20 19 19
20 17 17 18 19 18 16 16 17 17 15 14 13 12 12 13 13 14 15 17 17 16 16 23 33 35 31 29 28 26 25 24 24 23 23 23 22 21 21 21 22 23 23 23 24 25 26 26 25 25 25 25 25 24 24 24 24 24 23 23 21 21 21
23 19 16 16 18 19 18 18 19 19 18 17 16 15 14 14 15 15 15 16 16 16 13 14 22 29 30 30 30 30 30 30 29 27 26 25 24 23 23 23 23 22 22 22 23 24 25 26 27 27 27 26 26 26 26 27 27 26 26 25 24 23 22
25 22 20 18 18 20 21 20 20 21 20 20 19 17 15 15 16 16 17 18 18 18 16 14 16 20 23 23 25 27 28 30 32 32 30 29 28 27 26 26 25 24 24 24 24 24 24 25 27 29 29 29 28 28 28 28 28 28 28 28 26 25 25
28 26 25 23 22 21 22 23 23 23 22 21 20 19 17 17 17 18 19 20 21 20 19 18 17 18 18 17 17 19 20 22 26 30 31 30 30 30 30 29 28 28 28 27 26 26 26 27 28 29 30 31 31 32 32 31 30 30 29 30 29 28 27
31 31 30 27 25 24 24 24 24 24 24 23 22 21 20 18 18 19 20 21 22 22 22 21 20 20 19 16 15 17 18 18 20 24 28 29 30 31 31 31 31 32 33 32 31 30 30 30 31 32 31 32 33 33 32 32 33 31 31 32 32 30 30
30 31 31 29 27 26 26 26 26 26 26 25 24 23 23 21 19 19 21 22 23 23 24 24 24 24 23 20 18 18 19 19 18 19 20 23 26 28 30 31 33 35 36 36 34 34 33 33 34 34 32 32 33 32 32 34 34 33 34 35 34 32 31
30 31 31 31 30 29 30 29 29 28 28 27 26 25 24 24 23 22 21 22 24 24 24 25 25 25 25 24 23 22 21 22 22 20 19 19 21 23 26 28 31 33 36 37 36 35 36 35 34 34 32 33 34 34 35 37 37 37 38 38 37 35 33
33 33 33 33 34 34 34 33 32 31 30 29 29 27 25 25 25 25 24 23 23 24 24 25 26 26 25 25 25 24 22 23 24 24 23 21 19 19 21 24 26 28 32 36 36 36 37 36 34 33 33 34 36 39 40 41 40 40 41 41 40 38 35
36 37 37 37 38 38 37 37 36 35 34 33 32 30 28 26 26 26 26 26 24 24 23 24 25 25 26 25 25 24 24 24 25 25 25 23 19 18 19 20 21 23 26 29 31 33 35 34 32 33 33 34 37 42 44 44 45 44 41 41 42 40 36
38 39 39 39 39 39 39 39 38 37 35 34 34 33 31 29 27 27 27 27 26 25 24 24 24 25 25 25 26 26 25 25 25 25 25 25 24 24 23 21 20 20 21 24 26 28 31 32 31 33 34 34 36 42 44 44 46 46 42 40 41 41 39
41 41 41 42 41 40 40 39 39 38 36 35 35 35 34 32 30 29 28 28 28 27 26 25 25 25 25 25 26 27 27 27 26 26 25 25 26 26 26 25 24 23 22 22 21 22 24 27 28 29 31 31 32 36 39 41 44 45 43 41 40 42 41
41 42 42 42 42 41 42 43 42 39 37 36 35 36 36 34 32 30 29 29 29 29 28 27 26 26 25 25 25 26 26 26 27 27 26 26 25 25 26 25 25 26 26 25 23 22 21 22 22 22 22 22 21 22 24 28 34 38 40 41 40 40 40
41 41 42 42 41 41 43 46 45 42 39 37 36 37 37 36 33 31 30 30 30 31 30 30 29 27 26 26 25 25 25 25 25 25 25 25 25 25 25 25 25 26 27 28 28 26 23 22 20 19 19 18 17 16 15 15 17 20 25 32 37 39 40
42 41 42 44 43 42 42 42 43 44 41 38 38 38 36 35 33 32 31 31 31 32 32 32 32 31 29 28 27 26 26 26 25 25 24 24 24 24 24 25 26 26 26 28 28 26 25 25 24 22 22 21 20 19 19 19 19 17 15 18 24 31 37
40 40 41 42 42 43 42 40 41 45 45 40 39 38 34 33 32 32 32 32 32 33 33 33 33 33 33 31 30 29 28 28 27 27 26 25 25 25 24 24 25 24 25 27 27 26 26 28 28 28 29 30 29 28 27 27 26 24 19 16 17 20 24
40 40 40 41 42 43 43 41 40 44 46 42 38 36 35 33 33 33 33 34 34 34 34 34 34 34 34 34 33 32 31 30 30 29 29 28 27 26 26 25 25 24 25 26 26 25 26 27 28 27 29 30 30 29 27 25 23 23 23 23 23 21 17
38 38 38 38 40 42 44 43 40 40 42 40 38 38 37 37 37 36 36 36 36 36 36 36 35 35 35 35 35 35 34 33 32 32 31 30 29 29 29 28 27 27 28 28 28 28 27 27 27 25 24 25 25 24 25 25 23 22 23 24 25 24 21
37 38 38 37 38 40 42 42 41 41 42 41 41 41 41 41 40 40 39 38 38 38 38 38 37 36 36 35 35 36 36 36 35 34 34 33 32 31 31 31 31 31 31 31 30 30 30 30 29 26 23 24 24 24 26 28 27 26 25 25 27 28 27
38 39 39 39 39 41 43 44 44 45 46 46 46 45 45 45 44 43 42 41 41 40 40 39 39 38 37 37 36 36 36 36 36 36 35 35 34 34 33 33 34 34 34 33 32 31 31 32 32 30 28 29 31 31 30 31 30 29 28 27 27 29 30
39 38 38 38 38 39 42 45 47 48 48 48 48 49 49 48 47 46 45 44 43 42 42 41 40 40 40 39 38 38 38 38 37 37 37 37 37 36 36 36 36 36 37 36 35 34 34 33 33 32 32 33 36 36 36 34 32 31 31 30 30 30 30
40 39 39 40 41 39 39 41 44 47 48 49 49 50 51 50 49 47 46 45 44 44 43 43 42 42 42 41 41 41 40 41 40 40 40 40 39 40 40 39 39 39 39 39 39 38 37 36 35 35 34 34 35 36 36 36 35 34 33 32 32 32 32
39 39 40 42 45 45 44 42 42 43 45 47 47 48 48 48 47 46 45 45 45 45 45 45 44 44 43 43 43 43 43 43 43 43 43 43 43 43 43 43 43 43 42 42 42 41 40 40 39 38 37 37 37 37 37 37 37 36 35 34 34 33 33
Wind_Direction
249 216 210 218 221 217 218 219 216 213 214 212 209 210 213 215 216 216 214 212 210 210 212 215 217 217 214 213 214 214 214 214 214 215 215 215 214 214 216 216 218 218 215 221 229 228 222 218 215 209 205 200 193 191 186 183 187 195 207 214 222 228 237
229 218 220 227 225 221 217 217 216 212 212 212 209 209 213 216 216 217 218 217 214 212 212 215 218 220 219 217 215 216 217 218 220 221 220 220 220 221 220 220 223 224 222 221 220 224 227 226 227 224 217 213 209 205 200 196 199 208 217 226 231 231 234
223 220 225 230 228 222 216 214 213 211 212 213 210 210 214 220 219 218 220 220 218 216 214 216 219 220 222 222 220 218 218 220 221 223 224 222 225 228 227 226 226 225 225 224 218 220 226 227 231 235 231 227 221 216 213 210 212 214 220 230 237 240 240
222 219 223 225 224 220 213 210 208 208 212 213 210 211 218 225 224 221 221 222 221 221 219 218 220 221 223 224 224 223 221 222 222 223 224 221 223 229 230 230 232 229 227 226 223 223 226 226 229 231 232 232 229 224 221 220 220 220 221 227 235 242 246
226 219 222 223 220 217 211 207 205 205 209 213 212 213 219 226 226 224 224 223 222 224 223 221 221 223 225 227 228 226 224 224 224 224 224 222 223 227 227 228 232 233 230 227 227 227 228 230 232 231 229 230 231 229 227 226 225 226 225 226 231 234 240
227 215 214 210 206 211 212 209 207 205 206 211 213 215 221 227 228 226 226 224 223 224 225 226 224 223 225 228 229 229 227 227 227 227 225 224 224 226 227 227 228 231 231 231 231 230 230 233 236 237 234 232 233 232 233 233 231 231 231 230 230 229 232
218 211 205 197 193 204 213 213 212 209 208 210 213 217 225 230 230 230 229 227 225 225 226 228 227 225 224 226 229 229 228 227 228 229 228 227 226 226 227 228 229 230 229 231 234 233 232 234 236 239 240 238 237 235 235 238 237 235 235 235 234 230 231
213 211 206 202 200 205 213 216 217 218 217 215 215 218 225 229 230 232 234 232 228 226 227 229 230 228 227 227 229 230 230 228 229 230 231 231 230 228 228 228 230 232 229 230 234 234 234 235 235 238 241 243 244 241 239 240 240 240 241 241 239 235 234
213 216 210 211 213 214 219 222 225 227 224 221 222 223 226 227 225 226 231 232 229 226 226 228 230 230 230 232 233 232 233 231 230 230 231 233 233 231 230 229 230 232 233 233 234 235 235 236 236 237 239 241 244 245 244 242 241 241 242 244 244 242 239
217 224 221 221 220 221 227 233 240 241 234 231 235 234 233 230 224 223 227 230 229 226 225 226 229 230 230 232 234 234 234 234 233 232 231 233 235 234 233 232 231 232 235 236 236 236 237 238 238 237 237 238 240 243 245 243 242 241 242 244 246 246 245
220 222 224 227 225 226 231 236 247 253 247 243 244 245 242 233 224 222 225 228 229 228 227 228 229 230 231 232 234 234 235 236 236 235 234 234 235 236 236 237 235 234 236 239 240 240 241 242 241 240 239 239 239 240 242 243 243 242 243 243 244 244 246
225 224 224 228 230 232 233 232 241 253 258 255 252 255 252 234 223 220 223 227 230 229 228 229 230 230 232 233 234 235 235 236 237 238 238 238 238 239 240 241 241 238 238 240 243 244 244 245 245 244 243 243 242 241 241 242 242 243 243 243 243 243 245
223 223 224 226 230 234 235 232 236 248 258 259 254 257 259 238 224 220 222 227 231 231 230 230 229 228 229 231 231 232 234 235 235 237 239 241 241 241 241 243 245 244 241 241 243 245 245 245 246 247 246 245 245 244 243 242 243 244 245 244 242 241 241
224 218 217 221 226 230 230 229 230 238 249 258 258 257 261 244 228 223 224 228 232 235 235 235 234 230 228 228 228 228 230 232 232 233 236 239 241 242 241 242 244 245 245 244 243 245 246 246 245 246 247 246 245 245 245 243 243 246 247 245 242 241 240
237 228 220 216 219 222 221 225 228 230 238 250 258 256 253 243 231 227 227 228 231 236 237 237 237 234 231 229 228 227 228 230 230 230 232 236 240 243 243 243 243 245 247 247 246 246 247 248 248 248 248 249 247 246 246 243 242 245 248 246 244 243 242
246 245 235 224 220 220 222 229 232 232 234 240 250 253 247 239 231 226 226 228 231 236 238 236 233 232 230 229 228 228 229 230 232 232 233 236 238 242 245 247 246 245 246 248 249 249 249 250 251 251 251 252 251 250 249 246 243 243 244 245 245 245 245
237 247 249 241 233 228 228 235 240 240 239 240 244 248 248 246 241 235 233 234 235 239 244 239 231 228 228 229 228 230 231 233 235 236 237 238 240 242 245 248 250 249 248 248 249 251 253 253 253 253 252 253 254 254 252 250 247 246 246 247 246 247 247
231 234 239 244 244 240 237 240 243 244 245 245 246 247 248 250 250 249 247 243 241 242 246 243 232 227 230 233 233 235 236 237 237 238 240 242 243 244 245 245 248 251 253 253 252 252 253 256 257 257 255 254 254 255 254 253 252 250 250 250 249 247 247
230 230 230 232 237 240 240 241 244 246 247 248 251 253 254 254 254 254 252 248 248 249 248 248 241 233 234 238 237 238 240 240 239 239 242 244 244 245 246 247 248 249 251 254 256 257 257 258 259 259 258 257 255 254 254 254 254 252 251 251 250 248 247
229 232 233 234 235 236 238 240 243 247 249 249 252 255 256 255 254 254 254 252 253 255 254 253 248 242 241 243 241 243 245 246 245 243 243 245 245 245 246 249 250 251 251 252 254 256 256 257 258 258 259 257 255 254 253 253 254 254 253 252 251 250 249
230 232 234 235 235 235 236 239 242 246 250 250 251 254 255 253 251 251 253 253 253 256 258 258 255 250 249 249 249 251 254 257 256 250 245 245 247 246 246 248 250 251 253 254 254 254 255 255 256 257 256 256 254 253 254 254 253 253 254 254 252 251 250
229 230 232 233 233 234 236 240 243 246 249 250 250 251 252 251 248 247 249 251 252 254 257 260 261 259 256 255 255 255 256 261 266 263 254 250 249 248 247 248 249 250 252 255 255 255 256 257 259 259 258 258 256 251 250 251 250 250 252 252 251 250 249
230 230 232 233 232 234 237 240 244 246 249 251 250 249 249 249 247 245 245 248 250 252 254 256 260 262 261 260 259 258 259 263 267 268 266 260 256 253 250 248 249 251 252 254 255 255 256 256 258 258 257 257 256 252 251 250 246 242 245 247 248 248 248
232 234 237 238 237 238 240 242 246 248 250 253 253 250 248 248 247 245 245 247 249 250 251 252 255 259 261 261 261 261 261 264 266 267 268 268 263 258 254 252 252 251 250 252 254 254 255 255 254 254 254 254 254 255 255 253 247 242 240 241 242 243 243
234 237 239 241 243 244 245 246 248 250 252 255 256 255 252 250 249 246 245 247 248 249 250 250 251 253 256 259 261 262 262 263 264 266 268 269 267 263 261 259 257 253 250 252 255 253 253 254 254 253 254 252 253 257 258 256 253 250 246 242 241 241 240
239 241 241 243 245 247 248 248 249 251 252 254 256 256 255 253 252 250 247 246 247 249 250 249 248 248 250 254 256 259 261 262 263 264 265 266 266 267 267 265 263 261 255 251 253 254 254 255 254 253 253 251 253 258 260 256 254 253 250 248 246 244 241
241 242 243 245 247 249 250 250 249 249 250 251 253 255 255 254 253 252 251 247 245 247 248 249 249 248 248 250 252 255 258 260 262 264 264 263 264 266 268 267 266 266 262 254 254 257 258 258 256 255 255 256 257 260 260 258 255 253 251 250 250 249 245
244 244 245 246 247 248 250 249 248 248 248 247 249 253 255 255 253 252 251 249 245 245 246 247 249 249 250 250 252 254 256 258 260 262 264 264 263 264 267 268 266 264 262 260 260 263 263 263 262 259 260 265 269 271 271 266 261 257 254 253 253 252 249
245 246 246 246 245 244 246 246 245 244 244 243 243 248 252 254 253 250 248 248 246 244 244 245 246 248 249 250 252 253 255 257 259 261 264 265 264 263 263 266 265 264 263 263 264 265 266 265 264 263 265 268 271 278 286 283 274 268 264 261 259 256 254
244 244 244 245 245 245 247 246 241 238 239 239 239 244 250 252 252 249 247 246 246 245 245 245 246 247 248 249 251 252 254 256 257 260 263 264 266 265 262 262 264 264 265 265 264 263 260 259 262 266 268 265 262 270 284 290 287 284 281 278 273 265 258
242 243 244 245 247 248 250 250 243 234 232 233 236 241 246 248 249 249 248 247 247 247 247 247 246 247 248 249 251 252 254 255 256 258 260 262 264 265 264 263 263 264 265 265 264 261 258 257 261 266 268 267 269 277 285 285 281 277 275 281 290 287 271
242 244 245 246 249 248 248 251 247 234 226 228 233 238 243 245 247 248 249 248 248 248 249 249 249 249 249 250 251 252 253 254 255 256 258 260 261 262 263 262 260 259 261 261 262 263 264 264 265 267 270 274 278 280 279 274 269 267 267 268 276 285 283
243 245 245 245 248 248 248 250 247 234 226 229 235 239 243 246 247 248 248 247 247 247 248 249 250 250 250 250 250 251 252 253 254 255 256 258 259 260 261 261 259 256 257 258 260 262 264 265 266 268 276 282 281 272 264 261 260 259 260 263 268 272 274
245 245 246 247 250 252 251 248 242 233 232 236 239 240 243 246 247 247 246 245 245 246 246 248 249 250 250 250 250 250 251 251 252 253 254 255 256 258 258 259 259 258 258 259 260 259 260 261 262 262 266 272 270 263 259 260 261 260 261 263 266 266 267
247 248 247 247 248 249 248 244 240 238 238 240 240 241 242 243 244 243 242 242 243 244 244 245 247 248 249 250 250 250 250 251 251 252 253 253 254 256 257 258 258 259 259 259 259 258 257 258 260 259 256 256 260 264 267 267 266 265 264 264 264 264 264
247 249 248 245 243 244 242 240 239 239 240 239 240 241 241 241 241 241 240 241 242 243 243 243 244 246 247 248 249 250 250 251 251 252 253 254 255 255 256 257 257 258 258 259 259 258 257 257 257 257 256 255 257 263 267 268 268 267 265 263 262 261 261
247 248 247 244 243 245 245 242 240 239 239 239 240 240 239 239 240 240 241 242 243 244 244 244 244 245 246 247 248 250 251 252 253 253 253 254 255 255 256 257 257 257 257 258 258 258 258 257 256 256 256 256 257 259 262 264 265 265 264 263 261 260 259
250 250 250 248 248 250 250 248 244 242 240 241 241 241 241 240 240 241 242 244 245 246 246 246 246 246 246 247 248 249 250 252 253 254 254 254 254 255 255 256 256 257 257 258 258 258 258 259 258 258 258 258 259 260 261 262 262 262 262 262 261 260 260